Weather History for Nacogdoches, TX

Change the Weather History Date:

Wednesday, May 13, 2009

  Actual Average Record
Temperature  
Mean Temperature 80 °F -  
Max Temperature 89 °F 81 °F 87 °F (2003)
Min Temperature 71 °F 60 °F 44 °F (2013)
Cooling Degree Days 15    
Growing Degree Days 30 (Base 50)    
Moisture  
Dew Point 70 °F    
Average Humidity 78    
Maximum Humidity 100    
Minimum Humidity 49    
Precipitation  
Precipitation 0.00 in - - ()
Sea Level Pressure  
Sea Level Pressure 29.92 in    
Wind  
Wind Speed 10 mph (South)    
Max Wind Speed 21 mph    
Max Gust Speed 28 mph    
Visibility 9 miles    
Events      
Averages and records for this station are not official NWS values.
T = Trace of Precipitation, MM = Missing Value Source: NWS Daily Summary

Daily Weather History Graph

Daily Weather History Graph

Search for Another Location

Airport:

Trip Planner

Search our weather history database for the weather conditions in past years. The results will help you decide how hot, cold, wet, or windy it might be!

Date:

Astronomy

May. 13, 2009 Rise Set
Actual Time 6:23 AM CDT 8:07 PM CDT
Civil Twilight 5:56 AM CDT 8:33 PM CDT
Nautical Twilight 5:24 AM CDT 9:05 PM CDT
Astronomical Twilight 4:51 AM CDT 9:39 PM CDT
Moon No Moon Rise 9:42 AM CDT (5/13)
Length of Visible Light 14h 36m
Length of Day
13h 43m
Waning Gibbous, 82% of the Moon is Illuminated
May 13
Waning Gibbous
May 17
Last Quarter
May 24
New
May 30
First Quarter
Jun 7
Full

Hourly Weather History & Observations

Time (CDT) Temp. Heat Index Dew Point Humidity Pressure Visibility Wind Dir Wind Speed Gust Speed Precip Events Conditions
12:15 AM 73.4 °F - 71.6 °F 94% 29.93 in 8.0 mi South 8.1 mph - N/A   Overcast
12:35 AM 73.4 °F - 71.6 °F 94% 29.93 in 8.0 mi South 11.5 mph - N/A   Overcast
12:55 AM 73.4 °F - 71.6 °F 94% 29.93 in 8.0 mi South 10.4 mph - N/A   Overcast
1:15 AM 73.4 °F - 71.6 °F 94% 29.94 in 9.0 mi South 10.4 mph - N/A   Overcast
1:35 AM 75.2 °F - 71.6 °F 89% 29.95 in 9.0 mi South 10.4 mph - N/A   Overcast
1:55 AM 75.2 °F - 71.6 °F 89% 29.95 in 10.0 mi South 9.2 mph 18.4 mph N/A   Overcast
2:15 AM 73.4 °F - 71.6 °F 94% 29.96 in 9.0 mi South 9.2 mph - N/A   Overcast
2:35 AM 73.4 °F - 71.6 °F 94% 29.95 in 10.0 mi South 6.9 mph - N/A   Overcast
2:55 AM 73.4 °F - 71.6 °F 94% 29.94 in 10.0 mi South 6.9 mph - N/A   Overcast
3:15 AM 73.4 °F - 71.6 °F 94% 29.94 in 9.0 mi South 9.2 mph - N/A   Mostly Cloudy
3:35 AM 73.4 °F - 71.6 °F 94% 29.93 in 9.0 mi South 6.9 mph - N/A   Overcast
3:55 AM 73.4 °F - 71.6 °F 94% 29.93 in 10.0 mi South 10.4 mph - N/A   Scattered Clouds
4:15 AM 73.4 °F - 71.6 °F 94% 29.93 in 9.0 mi South 8.1 mph - N/A   Partly Cloudy
4:35 AM 71.6 °F - 71.6 °F 100% 29.93 in 8.0 mi South 5.8 mph - N/A   Scattered Clouds
4:55 AM 71.6 °F - 71.6 °F 100% 29.93 in 7.0 mi SSE 5.8 mph - N/A   Overcast
5:15 AM 71.6 °F - 71.6 °F 100% 29.93 in 6.0 mi South 5.8 mph - N/A   Overcast
5:35 AM 71.6 °F - 71.6 °F 100% 29.93 in 6.0 mi South 6.9 mph - N/A   Overcast
5:55 AM 71.6 °F - 71.6 °F 100% 29.93 in 5.0 mi SSE 5.8 mph - N/A   Overcast
6:15 AM 71.6 °F - 71.6 °F 100% 29.93 in 4.0 mi SSE 5.8 mph - N/A   Overcast
6:35 AM 71.6 °F - 71.6 °F 100% 29.93 in 4.0 mi South 6.9 mph - N/A   Overcast
6:55 AM 71.6 °F - 71.6 °F 100% 29.93 in 4.0 mi South 10.4 mph - N/A   Overcast
7:15 AM 71.6 °F - 71.6 °F 100% 29.93 in 5.0 mi South 8.1 mph - N/A   Overcast
7:35 AM 73.4 °F - 71.6 °F 94% 29.94 in 7.0 mi South 9.2 mph - N/A   Overcast
7:55 AM 73.4 °F - 71.6 °F 94% 29.95 in 7.0 mi South 5.8 mph - N/A   Overcast
8:15 AM 73.4 °F - 73.4 °F 100% 29.95 in 9.0 mi South 8.1 mph - N/A   Overcast
8:35 AM 75.2 °F - 71.6 °F 89% 29.94 in 10.0 mi South 10.4 mph - N/A   Overcast
8:55 AM 75.2 °F - 73.4 °F 94% 29.94 in 10.0 mi South 11.5 mph - N/A   Overcast
9:15 AM 77.0 °F - 71.6 °F 83% 29.94 in 10.0 mi South 12.7 mph - N/A   Overcast
9:35 AM 78.8 °F - 71.6 °F 78% 29.94 in 10.0 mi South 11.5 mph - N/A   Overcast
9:55 AM 80.6 °F 84.6 °F 71.6 °F 74% 29.93 in 10.0 mi South 15.0 mph 21.9 mph N/A   Overcast
10:15 AM 80.6 °F 84.6 °F 71.6 °F 74% 29.93 in 10.0 mi South 18.4 mph 23.0 mph N/A   Mostly Cloudy
10:35 AM 82.4 °F 87.2 °F 71.6 °F 70% 29.93 in 10.0 mi SSW 18.4 mph 24.2 mph N/A   Scattered Clouds
10:55 AM 84.2 °F 89.6 °F 71.6 °F 66% 29.93 in 10.0 mi South 16.1 mph 21.9 mph N/A   Partly Cloudy
11:15 AM 84.2 °F 88.4 °F 69.8 °F 62% 29.93 in 10.0 mi SSW 12.7 mph 20.7 mph N/A   Partly Cloudy
11:35 AM 86.0 °F 91.8 °F 71.6 °F 62% 29.93 in 10.0 mi SSW 12.7 mph 18.4 mph N/A   Partly Cloudy
11:55 AM 86.0 °F 90.4 °F 69.8 °F 58% 29.93 in 10.0 mi South 12.7 mph 24.2 mph N/A   Partly Cloudy
12:15 PM 87.8 °F 92.6 °F 69.8 °F 55% 29.92 in 10.0 mi SSW 19.6 mph 25.3 mph N/A   Clear
12:35 PM 87.8 °F 91.4 °F 68.0 °F 52% 29.92 in 10.0 mi South 17.3 mph 25.3 mph N/A   Clear
12:55 PM 87.8 °F 92.6 °F 69.8 °F 55% 29.91 in 10.0 mi SSW 15.0 mph 24.2 mph N/A   Clear
1:15 PM 87.8 °F 92.6 °F 69.8 °F 55% 29.91 in 10.0 mi South 19.6 mph 24.2 mph N/A   Partly Cloudy
1:35 PM 89.6 °F 94.7 °F 69.8 °F 52% 29.91 in 10.0 mi South 15.0 mph 25.3 mph N/A   Partly Cloudy
1:55 PM 89.6 °F 93.4 °F 68.0 °F 49% 29.90 in 10.0 mi South 17.3 mph 26.5 mph N/A   Partly Cloudy
2:15 PM 89.6 °F 93.4 °F 68.0 °F 49% 29.89 in 10.0 mi South 19.6 mph 27.6 mph N/A   Partly Cloudy
2:35 PM 89.6 °F 93.4 °F 68.0 °F 49% 29.88 in 10.0 mi SSW 20.7 mph 25.3 mph N/A   Scattered Clouds
3:15 PM 89.6 °F 93.4 °F 68.0 °F 49% 29.88 in 10.0 mi South 16.1 mph 21.9 mph N/A   Mostly Cloudy
5:55 PM 86.0 °F 90.4 °F 69.8 °F 58% 29.86 in 10.0 mi South 11.5 mph 17.3 mph N/A   Mostly Cloudy
6:55 PM 84.2 °F 86.6 °F 66.2 °F 55% 29.87 in 10.0 mi South 13.8 mph 18.4 mph N/A   Mostly Cloudy
7:15 PM 82.4 °F 84.6 °F 66.2 °F 58% 29.87 in 10.0 mi South 12.7 mph 19.6 mph N/A   Clear
7:35 PM 82.4 °F 83.9 °F 64.4 °F 54% 29.87 in 10.0 mi South 11.5 mph 16.1 mph N/A   Partly Cloudy
7:55 PM 82.4 °F 83.9 °F 64.4 °F 54% 29.88 in 10.0 mi SSE 8.1 mph - N/A   Clear
8:15 PM - - - N/A% 29.88 in 10.0 mi SSE 11.5 mph 17.3 mph N/A   Clear
8:35 PM 80.6 °F 82.7 °F 66.2 °F 61% 29.90 in 10.0 mi SSE 6.9 mph - N/A   Clear
8:55 PM 78.8 °F - 66.2 °F 65% 29.90 in 10.0 mi South 10.4 mph - N/A   Clear
9:35 PM 78.8 °F - 66.2 °F 65% 29.93 in 10.0 mi South 9.2 mph - N/A   Clear
9:55 PM 77.0 °F - 66.2 °F 69% 29.94 in 10.0 mi South 8.1 mph - N/A   Clear
10:35 PM 75.2 °F - 68.0 °F 78% 29.94 in 10.0 mi South 10.4 mph 16.1 mph N/A   Clear
10:55 PM 75.2 °F - 68.0 °F 78% 29.95 in 10.0 mi South 9.2 mph - N/A   Clear
11:15 PM 75.2 °F - 69.8 °F 83% 29.94 in 10.0 mi South 12.7 mph 16.1 mph N/A   Clear
11:35 PM 75.2 °F - 69.8 °F 83% 29.95 in 10.0 mi South 11.5 mph 18.4 mph N/A   Mostly Cloudy